Date_and_time,latitude,longitude,wind_speed,RelWindDirFrom,WindDirFrom,air_pressure,air_temperature,relative_humidity,Temp,platform_speed_wrt_ground,air_pressure_at_mean_sea_level,platform_orientation
2019-08-22 23:40,50.630485,-96.9807916666667,10.2,11.7,74,991.51,20.7,57,19.95,0.0,1017.53,194.5
2019-08-22 23:50,50.63044,-96.9807916666667,9.1,10.4,76,991.50,20.6,57,19.92,0.0,1017.52,194.5
2019-08-23 00:00,50.6304466666667,-96.9807716666667,8.4,10.9,80,991.49,20.8,57,19.91,0.0,1017.49,192.6
2019-08-23 00:10,50.6304483333333,-96.98077,8.5,11.0,80,991.51,21.1,56,19.92,0.0,1017.49,192.6
2019-08-23 00:20,50.63046,-96.980785,7.9,10.0,87,991.48,21.3,56,19.93,0.0,1017.46,192.6
2019-08-23 00:30,50.6304533333333,-96.9807783333333,8.4,10.9,89,991.44,21.5,55,19.92,0.0,1017.40,192.6
2019-08-23 00:40,50.630455,-96.9807766666667,9.0,11.7,93,991.38,21.4,56,19.91,0.0,1017.33,192.6
2019-08-23 00:50,50.6304533333333,-96.9807766666667,8.3,10.7,91,991.30,21.4,58,19.90,0.0,1017.25,192.6
2019-08-23 01:00,50.6304533333333,-96.9807783333333,11.7,15.0,110,991.22,21.2,57,19.95,0.0,1017.16,270.0
2019-08-23 01:10,50.630455,-96.98078,13.8,16.9,120,991.25,21.0,57,20.11,0.0,1017.19,270.0
2019-08-23 01:20,50.630455,-96.9807783333333,13.2,15.3,119,991.35,20.9,57,20.26,0.0,1017.30,270.0
2019-08-23 01:30,50.630455,-96.9807783333333,12.9,16.7,119,991.37,20.8,57,20.36,0.0,1017.33,270.0
2019-08-23 01:40,50.630455,-96.9807783333333,14.1,18.0,123,991.37,20.7,58,20.41,0.0,1017.34,270.0
2019-08-23 01:50,50.630455,-96.9807766666667,15.1,18.2,123,991.40,20.6,57,20.40,0.0,1017.36,270.0
2019-08-23 02:00,50.6304566666667,-96.9807783333333,15.7,19.4,123,991.50,20.4,59,20.38,0.0,1017.47,14.5
2019-08-23 02:10,50.630455,-96.9807783333333,15.7,19.3,127,991.54,20.3,57,20.35,0.0,1017.51,14.5
2019-08-23 02:20,50.630455,-96.9807783333333,14.6,19.5,130,991.65,20.0,57,20.34,0.0,1017.63,14.5
2019-08-23 02:30,50.630455,-96.9807783333333,13.6,17.9,132,991.76,19.8,58,20.33,0.0,1017.75,14.5
2019-08-23 02:40,50.6304533333333,-96.9807766666667,13.3,18.8,131,991.75,19.8,58,20.32,0.0,1017.74,14.5
2019-08-23 02:50,50.6304533333333,-96.9807766666667,13.5,18.0,135,991.75,19.6,58,20.29,0.0,1017.76,14.5
2019-08-23 03:00,50.6304533333333,-96.9807766666667,13.6,17.9,133,991.80,19.6,58,20.26,0.0,1017.81,38.0
2019-08-23 03:10,50.6304666666667,-96.980775,14.3,17.5,135,991.75,19.5,59,20.24,0.0,1017.78,38.0
2019-08-23 03:20,50.63045,-96.9807633333333,15.3,18.7,140,991.75,19.2,59,20.22,0.0,1017.79,38.0
2019-08-23 03:30,50.6304566666667,-96.98077,13.4,17.4,134,991.74,19.3,61,20.19,0.0,1017.79,38.0
2019-08-23 03:40,50.6304566666667,-96.9807733333333,13.0,17.4,133,991.74,19.3,60,20.17,0.0,1017.79,38.0
2019-08-23 03:50,50.6304566666667,-96.9807733333333,13.6,17.6,137,991.67,19.0,62,20.16,0.0,1017.74,38.0
2019-08-23 04:00,50.6304566666667,-96.9807716666667,16.0,19.3,138,991.54,18.9,61,20.14,0.0,1017.62,90.0
2019-08-23 04:10,50.6304566666667,-96.9807716666667,15.7,19.3,134,991.41,18.9,61,20.13,0.0,1017.49,90.0
2019-08-23 04:20,50.6304566666667,-96.9807716666667,17.8,22.2,138,991.32,18.7,61,20.13,0.0,1017.42,90.0
2019-08-23 04:30,50.6304566666667,-96.9807716666667,18.7,22.2,141,991.26,18.5,61,20.13,0.0,1017.36,90.0
2019-08-23 04:40,50.6304566666667,-96.9807716666667,17.1,21.7,144,991.29,18.5,64,20.13,0.0,1017.41,90.0
2019-08-23 04:50,50.6304566666667,-96.9807716666667,18.9,23.5,147,991.26,18.4,62,20.12,0.0,1017.38,90.0
2019-08-23 05:00,50.6304583333333,-96.9807716666667,20.0,23.9,145,991.18,18.3,62,20.12,0.0,1017.31,54.7
2019-08-23 05:10,50.6304583333333,-96.9807733333333,18.4,22.7,147,991.10,18.2,65,20.11,0.0,1017.24,54.7
2019-08-23 05:20,50.6304583333333,-96.9807733333333,18.5,22.7,150,991.08,18.1,64,20.10,0.0,1017.23,54.7
2019-08-23 05:30,50.6304583333333,-96.980775,15.2,20.4,157,991.34,18.0,67,20.07,0.0,1017.49,54.7
2019-08-23 05:40,50.6304583333333,-96.980775,15.6,20.9,157,991.31,17.9,67,20.04,0.0,1017.48,54.7
2019-08-23 05:50,50.63046,-96.980775,13.9,17.6,160,991.30,17.8,70,20.02,0.0,1017.48,54.7
2019-08-23 06:00,50.63046,-96.9807766666667,15.7,19.6,162,991.28,17.6,69,20.01,0.0,1017.47,360.0
2019-08-23 06:10,50.63046,-96.9807766666667,15.1,19.8,163,991.35,17.5,70,19.99,0.0,1017.55,360.0
2019-08-23 06:20,50.6304566666667,-96.9807733333333,16.0,19.7,165,991.53,17.3,69,19.98,0.0,1017.75,360.0
2019-08-23 06:30,50.63046,-96.9807766666667,16.9,20.8,163,991.62,17.3,68,19.98,0.0,1017.85,360.0
2019-08-23 06:40,50.63046,-96.980775,16.4,19.7,165,991.75,17.2,69,19.98,0.0,1017.99,360.0
2019-08-23 06:50,50.6304566666667,-96.9807716666667,15.4,18.1,164,991.93,17.2,69,19.97,0.0,1018.18,360.0
2019-08-23 07:00,50.6304533333333,-96.9807683333333,15.4,18.8,162,992.05,17.2,71,19.96,0.0,1018.31,90.0
2019-08-23 07:10,50.6304566666667,-96.9807633333333,18.5,23.4,162,992.08,17.1,69,19.95,0.0,1018.36,90.0
2019-08-23 07:20,50.630455,-96.9807633333333,17.3,21.6,165,992.36,16.8,70,19.93,0.0,1018.65,90.0
2019-08-23 07:30,50.630455,-96.9807666666667,14.9,17.7,166,992.45,16.5,72,19.92,0.0,1018.77,90.0
2019-08-23 07:40,50.6304516666667,-96.9807716666667,10.4,15.8,177,992.70,16.2,73,19.92,0.0,1019.04,90.0
2019-08-23 07:50,50.6304516666667,-96.980775,10.3,14.2,176,992.73,15.6,72,19.92,0.0,1019.11,90.0
2019-08-23 08:00,50.63045,-96.980775,10.8,13.3,175,992.59,15.2,73,19.92,0.0,1018.99,142.0
2019-08-23 08:10,50.63045,-96.9807766666667,10.2,12.3,176,992.51,14.8,75,19.91,0.0,1018.93,142.0
2019-08-23 08:20,50.63045,-96.980775,9.5,11.4,181,992.48,14.6,76,19.91,0.0,1018.92,142.0
2019-08-23 08:30,50.6304516666667,-96.9807733333333,10.3,13.8,179,992.50,14.4,76,19.90,0.0,1018.94,142.0
2019-08-23 08:40,50.6304316666667,-96.980815,10.9,13.1,178,992.42,14.3,76,19.88,0.0,1018.88,142.0
2019-08-23 08:50,50.6304583333333,-96.9807666666667,10.0,11.9,177,992.41,14.1,76,19.87,0.0,1018.86,142.0
2019-08-23 09:00,50.6304566666667,-96.9807816666667,10.2,12.7,180,992.59,14.1,77,19.85,0.0,1019.06,234.7
2019-08-23 09:10,50.630455,-96.980775,10.2,12.7,180,992.73,14.1,77,19.84,0.0,1019.22,234.7
2019-08-23 09:20,50.6304566666667,-96.9807766666667,10.7,12.8,177,992.80,14.1,77,19.83,0.0,1019.30,234.7
2019-08-23 09:30,50.6304566666667,-96.980775,10.3,12.4,177,992.86,14.1,77,19.82,0.0,1019.38,234.7
2019-08-23 09:40,50.6304566666667,-96.980775,10.3,12.6,175,992.94,14.0,77,19.81,0.0,1019.49,234.7
2019-08-23 09:50,50.6304566666667,-96.980775,9.8,12.4,177,993.03,13.8,77,19.80,0.0,1019.61,234.7
2019-08-23 10:00,50.630455,-96.9807733333333,10.0,12.5,175,993.01,13.6,78,19.79,0.0,1019.62,270.0
2019-08-23 10:10,50.630455,-96.9807716666667,10.1,11.9,174,993.07,13.4,78,19.78,0.0,1019.70,270.0
2019-08-23 10:20,50.630455,-96.9807716666667,9.8,12.3,171,992.96,13.4,79,19.77,0.0,1019.60,270.0
2019-08-23 10:30,50.6304533333333,-96.9807733333333,10.7,12.8,173,992.91,13.5,79,19.76,0.0,1019.55,270.0
2019-08-23 10:40,50.6304516666667,-96.980795,10.1,12.4,177,993.10,13.5,80,19.74,0.0,1019.74,270.0
2019-08-23 10:50,50.6304633333333,-96.9808016666667,9.4,11.5,176,993.17,13.2,80,19.73,0.0,1019.84,270.0
2019-08-23 11:00,50.6304566666667,-96.98079,9.2,11.0,175,993.29,13.2,80,19.71,0.0,1019.96,270.0
2019-08-23 11:10,50.6304416666667,-96.9807716666667,8.6,10.5,177,993.39,13.2,81,19.71,0.0,1020.06,270.0
2019-08-23 11:20,50.6304433333333,-96.98077,8.7,10.7,178,993.45,13.1,82,19.70,0.0,1020.13,270.0
2019-08-23 11:30,50.6304666666667,-96.9807666666667,7.9,10.3,181,993.59,13.1,82,19.69,0.0,1020.28,270.0
2019-08-23 11:40,50.63046,-96.9807683333333,8.0,10.1,177,993.61,13.0,81,19.68,0.0,1020.30,270.0
2019-08-23 11:50,50.6304616666667,-96.9807716666667,9.0,12.0,174,993.54,13.2,81,19.67,0.0,1020.24,270.0
2019-08-23 12:00,50.63046,-96.9807716666667,10.7,13.3,174,993.62,13.4,79,19.67,0.0,1020.32,54.7
2019-08-23 12:10,50.6304583333333,-96.9807733333333,10.7,13.2,170,993.62,13.6,79,19.68,0.0,1020.31,54.7
2019-08-23 12:20,50.6304583333333,-96.980775,11.3,13.8,166,993.46,13.8,78,19.66,0.0,1020.14,54.7
2019-08-23 12:30,50.6304566666667,-96.9807733333333,12.3,15.0,164,993.37,14.2,77,19.64,0.0,1020.02,54.7
2019-08-23 12:40,50.6304566666667,-96.9807733333333,12.3,15.2,167,993.34,14.6,76,19.64,0.0,1019.99,54.7
2019-08-23 12:50,50.6304566666667,-96.9807733333333,13.0,16.1,169,993.41,14.9,76,19.63,0.0,1020.05,54.7
2019-08-23 13:00,50.6304566666667,-96.9807716666667,12.7,15.5,173,993.45,15.0,75,19.61,0.0,1020.08,0.0
2019-08-23 13:10,50.6304566666667,-96.9807716666667,11.1,13.3,174,993.49,14.9,74,19.60,0.0,1020.13,0.0
2019-08-23 13:20,50.6304566666667,-96.9807716666667,10.9,13.3,170,993.45,14.8,73,19.59,0.0,1020.10,0.0
2019-08-23 13:30,50.6304566666667,-96.9807733333333,11.4,14.1,168,993.24,14.8,72,19.58,0.0,1019.88,0.0
2019-08-23 13:40,50.6304583333333,-96.9807733333333,11.9,14.6,168,993.17,14.9,71,19.57,0.0,1019.80,0.0
2019-08-23 13:50,50.6304516666667,-96.9807866666667,11.9,14.7,167,993.20,15.0,71,19.56,0.0,1019.81,0.0
2019-08-23 14:00,50.6304433333333,-96.980785,11.5,14.1,168,993.26,15.3,71,19.55,0.0,1019.85,165.5
2019-08-23 14:10,50.6304483333333,-96.980785,11.9,14.4,168,993.24,15.4,69,19.55,0.0,1019.82,165.5
2019-08-23 14:20,50.6304483333333,-96.980785,11.3,13.7,170,993.26,15.7,68,19.54,0.0,1019.80,165.5
2019-08-23 14:30,50.63045,-96.9807833333333,10.5,12.6,171,993.37,16.1,67,19.55,0.0,1019.88,165.5
2019-08-23 14:40,50.6304483333333,-96.9807816666667,9.4,12.5,174,993.46,16.6,66,19.57,0.0,1019.94,165.5
2019-08-23 14:50,50.63045,-96.9807816666667,10.8,14.2,172,993.45,17.2,62,19.58,0.0,1019.89,165.5
2019-08-23 15:00,50.63045,-96.98078,11.2,13.3,172,993.40,17.7,61,19.57,0.0,1019.83,240.8
2019-08-23 15:10,50.6304566666667,-96.9807466666667,10.4,13.0,165,993.18,17.9,60,19.57,0.0,1019.60,240.8
2019-08-23 15:20,50.6304516666667,-96.980775,10.6,14.3,153,993.17,18.0,62,19.57,0.0,1019.57,240.8
2019-08-23 15:30,50.63044,-96.9807916666667,11.7,13.9,145,993.05,17.9,62,19.59,0.0,1019.45,240.8
2019-08-23 15:40,50.6304416666667,-96.980795,12.0,14.4,146,993.08,18.1,64,19.61,0.0,1019.47,240.8
2019-08-23 15:50,50.6304316666667,-96.9807716666667,13.1,15.7,142,993.13,18.0,68,19.63,0.0,1019.52,240.8
2019-08-23 16:00,50.6304333333333,-96.980775,13.0,15.0,145,993.14,17.9,70,19.65,0.0,1019.53,154.3
2019-08-23 16:10,50.630435,-96.9807783333333,13.3,15.9,144,993.18,18.0,70,19.66,0.0,1019.55,154.3
2019-08-23 16:20,50.6304383333333,-96.9808116666667,13.5,16.5,146,993.27,18.2,68,19.66,0.0,1019.61,154.3
2019-08-23 16:30,50.630445,-96.98078,13.8,16.9,148,993.43,18.4,66,19.67,0.0,1019.74,154.3
2019-08-23 16:40,50.6304483333333,-96.9807883333333,14.7,17.7,147,993.52,18.6,65,19.68,0.0,1019.80,154.3
2019-08-23 16:50,50.63045,-96.9807866666667,14.4,17.0,144,993.48,18.8,64,19.70,0.0,1019.73,154.3
2019-08-23 17:00,50.63045,-96.980785,15.0,17.9,140,993.42,19.0,64,19.70,0.0,1019.64,360.0
2019-08-23 17:10,50.63043,-96.9807866666667,15.3,19.2,138,993.32,19.3,62,19.72,0.0,1019.52,360.0
2019-08-23 17:20,50.6304433333333,-96.98078,15.3,19.6,141,993.27,19.5,61,19.74,0.0,1019.46,360.0
2019-08-23 17:30,50.6304416666667,-96.9807866666667,15.6,20.2,138,993.23,19.7,60,19.76,0.0,1019.41,360.0
2019-08-23 17:40,50.6304416666667,-96.9807866666667,15.5,19.5,138,993.17,19.9,59,19.79,0.0,1019.35,360.0
2019-08-23 17:50,50.6304416666667,-96.9807866666667,15.2,19.2,136,993.08,20.3,58,19.80,0.0,1019.24,360.0
2019-08-23 18:00,50.6304366666667,-96.9807766666667,15.1,18.5,140,992.91,20.3,57,19.82,0.0,1019.06,176.8
2019-08-23 18:10,50.6304416666667,-96.9807783333333,16.2,20.2,136,992.76,20.5,55,19.84,0.0,1018.89,176.8
2019-08-23 18:20,50.6304433333333,-96.9807733333333,15.9,19.4,139,992.79,20.5,55,19.86,0.0,1018.91,176.8
2019-08-23 18:30,50.6304433333333,-96.9807733333333,15.3,20.0,138,992.79,20.7,54,19.86,0.0,1018.89,176.8
2019-08-23 18:40,50.630445,-96.9807916666667,15.4,18.9,139,992.73,20.7,54,19.88,0.0,1018.82,176.8
2019-08-23 18:50,50.6304433333333,-96.9807916666667,14.4,18.1,134,992.74,21.1,54,19.91,0.0,1018.80,176.8
2019-08-23 19:00,50.6304366666667,-96.9807966666667,14.2,19.2,131,992.73,21.3,52,19.92,0.0,1018.77,286.8
2019-08-23 19:10,50.6304383333333,-96.9807933333333,12.9,17.0,130,992.72,21.6,53,19.94,0.0,1018.74,286.8
2019-08-23 19:20,50.6304133333333,-96.980785,13.1,18.0,127,992.68,21.9,54,19.96,0.0,1018.68,286.8
2019-08-23 19:30,50.6304383333333,-96.9807866666667,12.3,17.2,129,992.68,21.8,56,19.98,0.0,1018.67,286.8
2019-08-23 19:40,50.6304416666667,-96.980785,13.3,17.2,135,992.69,21.6,54,20.00,0.0,1018.68,286.8
2019-08-23 19:50,50.6304433333333,-96.9807883333333,13.7,16.9,138,992.61,21.5,53,20.01,0.0,1018.60,286.8
2019-08-23 20:00,50.6304416666667,-96.9807883333333,13.3,18.0,133,992.51,21.8,53,20.02,0.0,1018.47,360.0
2019-08-23 20:10,50.6304433333333,-96.9807983333333,13.7,17.4,136,992.45,21.9,52,20.06,0.0,1018.40,360.0
2019-08-23 20:20,50.63044,-96.9808,13.9,18.9,131,992.35,22.1,52,20.08,0.0,1018.28,360.0
2019-08-23 20:30,50.6304416666667,-96.980795,13.5,17.1,135,992.33,22.1,52,20.10,0.0,1018.26,360.0
2019-08-23 20:40,50.6304383333333,-96.98079,14.4,19.0,136,992.29,22.1,51,20.11,0.0,1018.20,360.0
2019-08-23 20:50,50.63047,-96.9808,14.7,18.2,134,992.28,22.2,51,20.13,0.0,1018.19,360.0
2019-08-23 21:00,50.630445,-96.9807766666667,13.9,17.2,135,992.28,22.3,52,20.15,0.0,1018.16,38.0
2019-08-23 21:10,50.6304833333333,-96.9808,13.7,17.6,132,992.18,22.5,52,20.15,0.0,1018.04,38.0
2019-08-23 21:20,50.630445,-96.98078,13.5,19.0,129,992.07,22.7,50,20.17,0.0,1017.92,38.0
2019-08-23 21:30,50.6304466666667,-96.9807733333333,13.8,17.8,126,991.99,22.9,52,20.18,0.0,1017.83,38.0
2019-08-23 21:40,50.6304433333333,-96.9807733333333,13.9,18.8,126,991.83,22.9,51,20.20,0.0,1017.67,38.0
2019-08-23 21:50,50.6304416666667,-96.980775,12.8,16.8,124,991.78,22.9,54,20.23,0.0,1017.62,38.0
2019-08-23 22:00,50.6304316666667,-96.980815,12.3,15.9,125,991.69,22.9,55,20.25,0.0,1017.52,240.8
2019-08-23 22:10,50.6304433333333,-96.9807583333333,13.1,15.8,122,991.52,22.8,57,20.26,0.0,1017.34,240.8
2019-08-23 22:20,50.6304433333333,-96.98078,12.1,13.6,116,991.31,22.5,60,20.27,0.0,1017.14,240.8
2019-08-23 22:30,50.6304316666667,-96.980785,12.5,14.5,119,991.29,22.5,60,20.30,0.0,1017.12,240.8
2019-08-23 22:40,50.6304366666667,-96.9807866666667,12.6,14.2,119,991.25,22.5,61,20.34,0.0,1017.07,240.8
2019-08-23 22:50,50.6304366666667,-96.9807866666667,11.4,13.7,124,991.32,22.5,59,20.36,0.0,1017.14,240.8
2019-08-23 23:00,50.6304383333333,-96.9807883333333,12.5,14.9,136,991.24,22.3,51,20.36,0.0,1017.05,90.0
2019-08-23 23:10,50.6304383333333,-96.9807883333333,12.0,14.4,135,991.20,22.3,54,20.37,0.0,1017.00,90.0
2019-08-23 23:20,50.63044,-96.9807883333333,10.6,15.4,135,991.29,22.0,56,20.37,0.0,1017.10,90.0
2019-08-23 23:30,50.63044,-96.9807883333333,12.6,14.9,139,991.24,21.9,55,20.38,0.0,1017.06,90.0
2019-08-23 23:40,50.63044,-96.9807883333333,12.7,14.6,139,991.18,21.8,57,20.40,0.0,1017.00,90.0
2019-08-23 23:50,50.630455,-96.98078,12.8,15.3,142,991.13,21.8,56,20.41,0.0,1016.94,90.0
